EA3GKP-1 Weather Reports


time (UTC)temp
F
wind
direction
speed
knots
gust
knots
rain 1hr
in
rain 24hr
in
rain mn
in
humidity
%
barometer
mb
20260504100250 69 10 0.0 0.0 0.00 0.00 0.00 12 1011.0
20260504080716 70 10 0.0 0.0 0.00 0.00 0.00 12 1012.0
20260504060204 63 20 0.0 0.0 0.00 0.00 0.00 15 1012.0
20260504050416 62 22 0.0 0.0 0.00 0.00 0.00 16 1012.0
20260504045439 62 24 0.0 0.0 0.00 0.00 0.00 16 1012.0
20260504044501 63 20 0.0 0.0 0.00 0.00 0.00 16 1012.0
20260504043523 63 22 0.0 0.0 0.00 0.00 0.00 16 1012.0
20260504042545 62 22 0.0 0.0 0.00 0.00 0.00 16 1012.0
20260504041607 62 21 0.0 0.0 0.00 0.00 0.00 16 1012.0
20260504040629 63 22 0.0 0.0 0.00 0.00 0.00 16 1012.0
20260504035652 62 21 0.0 0.0 0.00 0.00 0.00 16 1012.0
20260504034714 62 23 0.0 0.0 0.00 0.00 0.00 16 1012.0
20260504033739 63 21 0.0 0.0 0.00 0.00 0.00 16 1012.0
20260504032758 63 22 0.0 0.0 0.00 0.00 0.00 16 1012.0
20260504031820 63 23 0.0 0.0 0.00 0.00 0.00 16 1013.0
20260504030842 63 21 0.0 0.0 0.00 0.00 0.00 16 1013.0
20260504024926 63 21 0.0 0.0 0.00 0.00 0.00 16 1013.0
20260504023949 63 22 0.0 0.0 0.00 0.00 0.00 16 1012.0
20260504023011 63 21 0.0 0.0 0.00 0.00 0.00 16 1012.0
20260504022035 63 21 0.0 0.0 0.00 0.00 0.00 16 1012.0
20260504021055 63 22 0.0 0.0 0.00 0.00 0.00 16 1013.0
20260504020117 62 22 0.0 0.0 0.00 0.00 0.00 16 1013.0
20260504014202 62 24 0.0 0.0 0.00 0.00 0.00 16 1013.0
20260504013226 62 24 0.0 0.0 0.00 0.00 0.00 16 1013.0
20260504012246 62 22 0.0 0.0 0.00 0.00 0.00 16 1013.0
20260504011310 62 23 0.0 0.0 0.00 0.00 0.00 18 1013.0
20260504010330 62 22 0.0 0.0 0.00 0.00 0.00 18 1013.0
20260504005352 62 25 0.0 0.0 0.00 0.00 0.00 18 1013.0
20260504004415 62 25 0.0 0.0 0.00 0.00 0.00 18 1013.0
20260504003438 62 24 0.0 0.0 0.00 0.00 0.00 18 1013.0
20260504002459 62 25 0.0 0.0 0.00 0.00 0.00 18 1013.0
20260504001522 62 23 0.0 0.0 0.00 0.00 0.00 18 1013.0
20260504000545 62 24 0.0 0.0 0.00 0.00 0.00 18 1013.0
20260503235608 62 23 0.0 0.0 0.00 0.00 0.00 18 1013.0
20260503234632 62 25 0.0 0.0 0.00 0.00 0.00 18 1013.0
20260503233651 62 25 0.0 0.0 0.00 0.00 0.00 18 1013.0
20260503232714 62 26 0.0 0.0 0.00 0.00 0.00 18 1014.0
20260503231736 61 25 0.0 0.0 0.00 0.00 0.00 18 1014.0
20260503230758 62 26 0.0 0.0 0.00 0.00 0.00 18 1013.0
20260503225820 62 24 0.0 0.0 0.00 0.00 0.00 18 1014.0
20260503224842 62 24 0.0 0.0 0.00 0.00 0.00 18 1014.0
20260503223904 62 25 0.0 0.0 0.00 0.00 0.00 18 1014.0
20260503222925 61 25 0.0 0.0 0.00 0.00 0.00 18 1014.0
20260503221948 61 24 0.0 0.0 0.00 0.00 0.00 18 1014.0
20260503221009 61 23 0.0 0.0 0.00 0.00 0.00 18 1014.0
20260503220034 61 24 0.0 0.0 0.00 0.00 0.00 18 1014.0
20260503215053 62 24 0.0 0.0 0.00 0.00 0.00 18 1014.0
20260503214115 62 25 0.0 0.0 0.00 0.00 0.00 18 1014.0
20260503213141 62 25 0.0 0.0 0.00 0.00 0.00 18 1014.0
20260503212200 62 24 0.0 0.0 0.00 0.00 0.00 18 1014.0
20260503211224 62 24 0.0 0.0 0.00 0.00 0.00 18 1014.0
20260503205306 62 25 0.0 0.0 0.00 0.00 0.00 20 1014.0
20260503204328 62 27 0.0 0.0 0.00 0.00 0.00 20 1014.0
20260503203350 62 29 0.0 0.0 0.00 0.00 0.00 20 1014.0
20260503202412 62 29 0.0 0.0 0.00 0.00 0.00 21 1014.0
20260503201434 62 29 0.0 0.0 0.00 0.00 0.00 21 1014.0
20260503200457 62 31 0.0 0.0 0.00 0.00 0.00 21 1014.0
20260503195519 63 31 0.0 0.0 0.00 0.00 0.00 23 1014.0
20260503194541 63 25 0.0 0.0 0.00 0.00 0.00 20 1014.0
20260503193605 63 25 0.0 0.0 0.00 0.00 0.00 20 1014.0
20260503192630 63 26 0.0 0.0 0.00 0.00 0.00 20 1014.0
20260503191647 63 24 0.0 0.0 0.00 0.00 0.00 18 1014.0
20260503190710 63 26 0.0 0.0 0.00 0.00 0.00 18 1013.0
20260503185733 63 23 0.0 0.0 0.00 0.00 0.00 18 1013.0
20260503184754 64 20 0.0 0.0 0.00 0.00 0.00 16 1013.0
20260503183816 64 20 0.0 0.0 0.00 0.00 0.00 16 1013.0
20260503182838 63 21 0.0 0.0 0.00 0.00 0.00 16 1014.0
20260503181900 63 21 0.0 0.0 0.00 0.00 0.00 16 1014.0
20260503180922 63 21 0.0 0.0 0.00 0.00 0.00 16 1013.0
20260503175945 64 20 0.0 0.0 0.00 0.00 0.00 16 1013.0
20260503175007 64 20 0.0 0.0 0.00 0.00 0.00 16 1013.0
20260503174029 63 19 0.0 0.0 0.00 0.00 0.00 16 1013.0
20260503173054 64 21 0.0 0.0 0.00 0.00 0.00 15 1013.0
20260503171137 64 17 0.0 0.0 0.00 0.00 0.00 15 1013.0
20260503170157 64 17 0.0 0.0 0.00 0.00 0.00 15 1013.0
20260503150623 64 14 0.0 0.0 0.00 0.00 0.00 12 1014.0
20260503131049 65 14 0.0 0.0 0.00 0.00 0.00 13 1015.0
20260503130113 65 14 0.0 0.0 0.00 0.00 0.00 13 1015.0